パンスターズ-クリステンセン彗星

443P/PanSTARRS-Christensen (2022)

English version
Home page
Updated on September 11, 2022

---------------------------------------------------------------------

・ プロフィール

符号 443P/2022 E1
発見日 2022年3月2日
発見光度 20.6等
発見者 Eric J. Christensen (Mt. Lemmon)

・ 写真集

・ 軌道要素

Epoch 2022 Aug. 9.0 TT = JDT 2459800.5
T 2022 Oct. 10.14358 TT                                 Rudenko
q   2.9561784            (2000.0)            P               Q
n   0.11749948     Peri.  145.10700     -0.24249278     +0.91525548
a   4.1283713      Node   108.94559     -0.94941104     -0.15567291
e   0.2839359      Incl.   19.88590     -0.19953931     -0.37158223
P   8.39
From 159 observations 2005 July 5-2022 July 28, mean residual 0".5.

・ 光度変化

        m1 = 7.5 + 5 logΔ + 20.0 log r

---------------------------------------------------------------------

軌道要素はM.P.E.C. 2022-O116に掲載されたものです。
光度グラフはComet for Windowsで作成したものです。

---------------------------------------------------------------------

Copyright(C) Seiichi Yoshida (comet@aerith.net). All rights reserved.